Time,TemperatureF,DewpointF,PressureIn,WindDirection,WindDirectionDegrees,WindSpeedMPH,WindSpeedGustMPH,Humidity,HourlyPrecipIn,Conditions,Clouds,dailyrainin,SoftwareType,DateUTC
2013-02-28 00:04:00,44.0,31.0,29.76,NW,315,5.0,8.0,60,0.00,,CLR,0.00,VWS V14.01,2013-02-28 05:04:00,
2013-02-28 00:09:00,43.9,30.9,29.76,NW,310,2.0,5.0,60,0.00,,CLR,0.00,VWS V14.01,2013-02-28 05:09:00,
2013-02-28 00:14:00,43.7,30.7,29.76,NW,305,2.0,5.0,60,0.00,,CLR,0.00,VWS V14.01,2013-02-28 05:14:00,
2013-02-28 00:19:00,43.5,31.0,29.76,NW,311,2.0,3.0,61,0.00,,CLR,0.00,VWS V14.01,2013-02-28 05:19:00,
2013-02-28 00:24:00,43.1,30.6,29.76,NW,318,2.0,5.0,61,0.00,,CLR,0.00,VWS V14.01,2013-02-28 05:24:00,
2013-02-28 00:29:00,43.1,30.6,29.76,WNW,298,0.0,1.0,61,0.00,,CLR,0.00,VWS V14.01,2013-02-28 05:29:00,
2013-02-28 00:34:00,42.8,30.3,29.75,WNW,288,0.0,1.0,61,0.00,,CLR,0.00,VWS V14.01,2013-02-28 05:34:00,
2013-02-28 00:39:00,42.5,30.4,29.75,NW,313,0.0,0.0,62,0.00,,CLR,0.00,VWS V14.01,2013-02-28 05:39:00,
2013-02-28 00:44:00,42.1,30.4,29.76,WNW,282,0.0,0.0,63,0.00,,SCT075,0.00,VWS V14.01,2013-02-28 05:44:00,
2013-02-28 00:49:00,41.7,30.4,29.76,WNW,283,0.0,0.0,64,0.00,,SCT075,0.00,VWS V14.01,2013-02-28 05:49:00,
2013-02-28 00:54:00,41.3,30.4,29.76,WNW,282,0.0,0.0,65,0.00,,SCT075,0.00,VWS V14.01,2013-02-28 05:54:00,
2013-02-28 00:59:00,41.0,30.1,29.76,WNW,283,0.0,1.0,65,0.00,,SCT075,0.00,VWS V14.01,2013-02-28 05:59:00,
2013-02-28 01:04:00,40.9,30.1,29.76,NW,323,0.0,0.0,65,0.00,,SCT080,0.00,VWS V14.01,2013-02-28 06:04:00,
2013-02-28 01:09:00,40.8,30.3,29.76,SW,219,0.0,0.0,66,0.00,,SCT080,0.00,VWS V14.01,2013-02-28 06:09:00,
2013-02-28 01:14:00,40.6,30.1,29.76,SW,221,0.0,1.0,66,0.00,,SCT080,0.00,VWS V14.01,2013-02-28 06:14:00,
2013-02-28 01:19:00,40.4,30.0,29.76,SW,219,0.0,0.0,66,0.00,,SCT080,0.00,VWS V14.01,2013-02-28 06:19:00,
2013-02-28 01:24:00,40.2,30.1,29.76,WSW,248,0.0,2.0,67,0.00,,OVC085,0.00,VWS V14.01,2013-02-28 06:24:00,
2013-02-28 01:29:00,40.2,30.1,29.76,NNW,336,0.0,0.0,67,0.00,,OVC085,0.00,VWS V14.01,2013-02-28 06:29:00,
2013-02-28 01:34:00,40.1,30.0,29.76,NW,314,6.0,6.0,67,0.00,,OVC085,0.00,VWS V14.01,2013-02-28 06:34:00,
2013-02-28 01:39:00,40.7,30.6,29.75,NW,313,0.0,1.0,67,0.00,,OVC085,0.00,VWS V14.01,2013-02-28 06:39:00,
2013-02-28 01:44:00,41.1,29.9,29.75,SW,218,0.0,6.0,64,0.00,,OVC085,0.00,VWS V14.01,2013-02-28 06:44:00,
2013-02-28 01:49:00,41.2,30.0,29.75,NW,311,2.0,4.0,64,0.00,,OVC085,0.00,VWS V14.01,2013-02-28 06:49:00,
2013-02-28 01:54:00,41.7,29.7,29.75,NNW,337,1.0,5.0,62,0.00,,OVC085,0.00,VWS V14.01,2013-02-28 06:54:00,
2013-02-28 01:59:00,42.0,29.1,29.75,WNW,283,1.0,1.0,60,0.00,,OVC085,0.00,VWS V14.01,2013-02-28 06:59:00,
2013-02-28 02:04:00,41.8,29.4,29.75,WNW,296,2.0,4.0,61,0.00,,BKN080,0.00,VWS V14.01,2013-02-28 07:04:00,
2013-02-28 02:09:00,41.9,29.0,29.75,NW,305,5.0,5.0,60,0.00,,BKN080,0.00,VWS V14.01,2013-02-28 07:09:00,
2013-02-28 02:14:00,41.9,29.0,29.75,NW,322,3.0,8.0,60,0.00,,BKN080,0.00,VWS V14.01,2013-02-28 07:14:00,
2013-02-28 02:19:00,42.0,28.7,29.75,NW,318,1.0,1.0,59,0.00,,OVC070,0.00,VWS V14.01,2013-02-28 07:19:00,
2013-02-28 02:24:00,42.1,28.8,29.75,NW,314,3.0,7.0,59,0.00,,OVC070,0.00,VWS V14.01,2013-02-28 07:24:00,
2013-02-28 02:29:00,42.2,28.5,29.75,WSW,253,2.0,5.0,58,0.00,,OVC070,0.00,VWS V14.01,2013-02-28 07:29:00,
2013-02-28 02:34:00,42.2,28.5,29.75,NW,305,7.0,9.0,58,0.00,,OVC070,0.00,VWS V14.01,2013-02-28 07:34:00,
2013-02-28 02:39:00,42.2,28.5,29.75,NNW,330,5.0,5.0,58,0.00,,OVC046,0.00,VWS V14.01,2013-02-28 07:39:00,
2013-02-28 02:44:00,41.8,28.1,29.75,NNW,335,3.0,7.0,58,0.00,,OVC046,0.00,VWS V14.01,2013-02-28 07:44:00,
2013-02-28 02:49:00,41.6,27.9,29.75,WNW,293,1.0,4.0,58,0.00,,OVC046,0.00,VWS V14.01,2013-02-28 07:49:00,
2013-02-28 02:54:00,41.5,27.4,29.75,NNW,328,3.0,9.0,57,0.00,,OVC046,0.00,VWS V14.01,2013-02-28 07:54:00,
2013-02-28 02:59:00,41.3,27.6,29.75,WNW,295,5.0,8.0,58,0.00,,OVC046,0.00,VWS V14.01,2013-02-28 07:59:00,
2013-02-28 03:04:00,41.2,28.0,29.74,NW,308,4.0,8.0,59,0.00,,OVC046,0.00,VWS V14.01,2013-02-28 08:04:00,
2013-02-28 03:09:00,41.1,27.5,29.74,NW,308,1.0,5.0,58,0.00,,OVC046,0.00,VWS V14.01,2013-02-28 08:09:00,
2013-02-28 03:14:00,40.8,27.6,29.74,NNW,337,6.0,6.0,59,0.00,,OVC046,0.00,VWS V14.01,2013-02-28 08:14:00,
2013-02-28 03:19:00,40.8,27.6,29.74,WNW,289,3.0,6.0,59,0.00,,OVC046,0.00,VWS V14.01,2013-02-28 08:19:00,
2013-02-28 03:24:00,40.7,27.5,29.74,NW,316,8.0,10.0,59,0.00,,OVC046,0.00,VWS V14.01,2013-02-28 08:24:00,
2013-02-28 03:29:00,40.9,27.7,29.74,NW,311,3.0,3.0,59,0.00,,OVC046,0.00,VWS V14.01,2013-02-28 08:29:00,
2013-02-28 03:34:00,40.8,27.6,29.74,NW,319,7.0,7.0,59,0.00,,OVC046,0.00,VWS V14.01,2013-02-28 08:34:00,
2013-02-28 03:39:00,40.7,27.5,29.74,NW,311,2.0,2.0,59,0.00,,OVC048,0.00,VWS V14.01,2013-02-28 08:39:00,
2013-02-28 03:44:00,40.6,27.0,29.74,WNW,283,1.0,3.0,58,0.00,,OVC048,0.00,VWS V14.01,2013-02-28 08:44:00,
2013-02-28 03:49:00,40.6,27.4,29.74,WNW,297,0.0,2.0,59,0.00,,OVC048,0.00,VWS V14.01,2013-02-28 08:49:00,
2013-02-28 03:54:00,40.4,27.6,29.74,SSW,197,0.0,2.0,60,0.00,,OVC048,0.00,VWS V14.01,2013-02-28 08:54:00,
2013-02-28 03:59:00,40.0,27.6,29.74,SW,219,0.0,2.0,61,0.00,,OVC048,0.00,VWS V14.01,2013-02-28 08:59:00,
2013-02-28 04:04:00,39.8,27.5,29.74,NNW,330,7.0,7.0,61,0.00,,OVC050,0.00,VWS V14.01,2013-02-28 09:04:00,
2013-02-28 04:09:00,40.0,27.2,29.74,NW,318,2.0,4.0,60,0.00,,OVC050,0.00,VWS V14.01,2013-02-28 09:09:00,
2013-02-28 04:14:00,40.1,27.4,29.74,NW,305,2.0,3.0,60,0.00,,OVC050,0.00,VWS V14.01,2013-02-28 09:14:00,
2013-02-28 04:19:00,40.1,28.1,29.75,North,349,0.0,0.0,62,0.00,,OVC050,0.00,VWS V14.01,2013-02-28 09:19:00,
2013-02-28 04:24:00,39.6,28.1,29.75,NNE,30,0.0,0.0,63,0.00,,BKN060,0.00,VWS V14.01,2013-02-28 09:24:00,
2013-02-28 04:29:00,39.3,27.8,29.75,NE,38,3.0,6.0,63,0.00,,BKN060,0.00,VWS V14.01,2013-02-28 09:29:00,
2013-02-28 04:34:00,39.7,27.8,29.75,North,360,2.0,4.0,62,0.00,,BKN060,0.00,VWS V14.01,2013-02-28 09:34:00,
2013-02-28 04:39:00,39.8,27.5,29.75,NW,316,4.0,6.0,61,0.00,,BKN060,0.00,VWS V14.01,2013-02-28 09:39:00,
2013-02-28 04:44:00,39.9,27.6,29.75,NNE,15,2.0,3.0,61,0.00,,SCT060,0.00,VWS V14.01,2013-02-28 09:44:00,
2013-02-28 04:49:00,39.9,27.6,29.75,NW,324,1.0,1.0,61,0.00,,SCT060,0.00,VWS V14.01,2013-02-28 09:49:00,
2013-02-28 04:54:00,39.9,27.6,29.75,NNW,343,0.0,2.0,61,0.00,,SCT060,0.00,VWS V14.01,2013-02-28 09:54:00,
2013-02-28 04:59:00,39.6,28.1,29.75,WNW,291,0.0,1.0,63,0.00,,SCT060,0.00,VWS V14.01,2013-02-28 09:59:00,
2013-02-28 05:04:00,39.7,27.8,29.75,WNW,302,0.0,3.0,62,0.00,,CLR,0.00,VWS V14.01,2013-02-28 10:04:00,
2013-02-28 05:09:00,39.6,28.1,29.75,NNE,27,0.0,2.0,63,0.00,,CLR,0.00,VWS V14.01,2013-02-28 10:09:00,
2013-02-28 05:14:00,39.2,27.3,29.75,WNW,284,2.0,3.0,62,0.00,,CLR,0.00,VWS V14.01,2013-02-28 10:14:00,
2013-02-28 05:19:00,39.5,27.6,29.75,NW,312,2.0,7.0,62,0.00,,CLR,0.00,VWS V14.01,2013-02-28 10:19:00,
2013-02-28 05:24:00,39.9,27.6,29.75,WNW,298,2.0,7.0,61,0.00,,BKN050,0.00,VWS V14.01,2013-02-28 10:24:00,
2013-02-28 05:29:00,40.2,27.0,29.75,NNW,327,3.0,8.0,59,0.00,,BKN050,0.00,VWS V14.01,2013-02-28 10:29:00,
2013-02-28 05:34:00,40.4,28.0,29.75,WNW,301,1.0,3.0,61,0.00,,BKN050,0.00,VWS V14.01,2013-02-28 10:34:00,
2013-02-28 05:39:00,40.3,27.1,29.75,NW,305,4.0,8.0,59,0.00,,BKN050,0.00,VWS V14.01,2013-02-28 10:39:00,
2013-02-28 05:44:00,40.4,27.2,29.75,WNW,295,0.0,2.0,59,0.00,,OVC050,0.00,VWS V14.01,2013-02-28 10:44:00,
2013-02-28 05:49:00,40.4,27.6,29.75,NW,307,3.0,4.0,60,0.00,,OVC050,0.00,VWS V14.01,2013-02-28 10:49:00,
2013-02-28 05:54:00,40.4,27.2,29.75,NW,319,4.0,5.0,59,0.00,,OVC050,0.00,VWS V14.01,2013-02-28 10:54:00,
2013-02-28 05:59:00,40.6,27.0,29.76,NNW,342,4.0,4.0,58,0.00,,OVC050,0.00,VWS V14.01,2013-02-28 10:59:00,
2013-02-28 06:04:00,40.6,27.4,29.76,WNW,291,2.0,5.0,59,0.00,,OVC050,0.00,VWS V14.01,2013-02-28 11:04:00,
2013-02-28 06:09:00,40.7,27.1,29.76,WNW,297,6.0,9.0,58,0.00,,OVC050,0.00,VWS V14.01,2013-02-28 11:09:00,
2013-02-28 06:14:00,40.7,27.1,29.76,NW,315,5.0,8.0,58,0.00,,OVC050,0.00,VWS V14.01,2013-02-28 11:14:00,
2013-02-28 06:19:00,40.5,27.3,29.77,West,280,1.0,5.0,59,0.00,,OVC050,0.00,VWS V14.01,2013-02-28 11:19:00,
2013-02-28 06:24:00,40.4,27.6,29.77,WNW,293,0.0,1.0,60,0.00,,OVC050,0.00,VWS V14.01,2013-02-28 11:24:00,
2013-02-28 06:29:00,40.2,26.2,29.77,NW,308,11.0,18.0,57,0.00,,OVC050,0.00,VWS V14.01,2013-02-28 11:29:00,
2013-02-28 06:34:00,40.0,26.0,29.77,West,263,1.0,12.0,57,0.00,,OVC050,0.00,VWS V14.01,2013-02-28 11:34:00,
2013-02-28 06:39:00,39.8,25.8,29.77,North,359,5.0,5.0,57,0.00,,BKN050,0.00,VWS V14.01,2013-02-28 11:39:00,
2013-02-28 06:44:00,39.7,25.7,29.77,NW,316,2.0,11.0,57,0.00,,BKN050,0.00,VWS V14.01,2013-02-28 11:44:00,
2013-02-28 06:49:00,39.6,25.6,29.77,NW,325,6.0,15.0,57,0.00,,BKN050,0.00,VWS V14.01,2013-02-28 11:49:00,
2013-02-28 06:54:00,39.4,25.0,29.77,WNW,293,5.0,10.0,56,0.00,,BKN050,0.00,VWS V14.01,2013-02-28 11:54:00,
2013-02-28 06:59:00,39.4,25.5,29.78,NW,314,3.0,3.0,57,0.00,,BKN050,0.00,VWS V14.01,2013-02-28 11:59:00,
2013-02-28 07:04:00,39.3,24.9,29.78,West,281,4.0,9.0,56,0.00,,SCT060,0.00,VWS V14.01,2013-02-28 12:04:00,
2013-02-28 07:09:00,39.2,24.8,29.78,WSW,245,1.0,5.0,56,0.00,,SCT060,0.00,VWS V14.01,2013-02-28 12:09:00,
2013-02-28 07:14:00,39.2,25.3,29.78,NW,322,2.0,4.0,57,0.00,,SCT060,0.00,VWS V14.01,2013-02-28 12:14:00,
2013-02-28 07:19:00,39.1,25.6,29.78,WNW,302,3.0,5.0,58,0.00,,BKN060,0.00,VWS V14.01,2013-02-28 12:19:00,
2013-02-28 07:24:00,39.1,25.6,29.78,WSW,252,1.0,3.0,58,0.00,,BKN060,0.00,VWS V14.01,2013-02-28 12:24:00,
2013-02-28 07:29:00,39.1,25.2,29.78,NW,321,2.0,4.0,57,0.00,,BKN060,0.00,VWS V14.01,2013-02-28 12:29:00,
2013-02-28 07:34:00,39.3,24.5,29.78,WNW,302,8.0,9.0,55,0.00,,BKN060,0.00,VWS V14.01,2013-02-28 12:34:00,
2013-02-28 07:39:00,39.4,24.1,29.78,WNW,288,6.0,10.0,54,0.00,,OVC050,0.00,VWS V14.01,2013-02-28 12:39:00,
2013-02-28 07:44:00,39.5,23.8,29.78,NW,311,10.0,13.0,53,0.00,,OVC050,0.00,VWS V14.01,2013-02-28 12:44:00,
2013-02-28 07:49:00,39.5,24.2,29.79,NW,304,7.0,18.0,54,0.00,,OVC050,0.00,VWS V14.01,2013-02-28 12:49:00,
2013-02-28 07:54:00,39.5,24.2,29.79,NW,316,2.0,7.0,54,0.00,,OVC050,0.00,VWS V14.01,2013-02-28 12:54:00,
2013-02-28 07:59:00,39.6,24.3,29.79,NNW,328,7.0,9.0,54,0.00,,OVC050,0.00,VWS V14.01,2013-02-28 12:59:00,
2013-02-28 08:04:00,39.8,24.1,29.79,NW,305,4.0,12.0,53,0.00,,OVC050,0.00,VWS V14.01,2013-02-28 13:04:00,
2013-02-28 08:09:00,40.1,24.8,29.79,WNW,297,3.0,5.0,54,0.00,,OVC050,0.00,VWS V14.01,2013-02-28 13:09:00,
2013-02-28 08:14:00,40.0,24.7,29.79,WNW,298,5.0,8.0,54,0.00,,OVC050,0.00,VWS V14.01,2013-02-28 13:14:00,
2013-02-28 08:19:00,39.9,24.6,29.79,NW,315,4.0,9.0,54,0.00,,OVC050,0.00,VWS V14.01,2013-02-28 13:19:00,
2013-02-28 08:24:00,39.8,24.1,29.79,NW,319,6.0,15.0,53,0.00,,OVC050,0.00,VWS V14.01,2013-02-28 13:24:00,
2013-02-28 08:29:00,40.2,24.5,29.79,NW,313,12.0,14.0,53,0.00,,OVC050,0.00,VWS V14.01,2013-02-28 13:29:00,
2013-02-28 08:34:00,40.6,25.3,29.79,North,349,2.0,8.0,54,0.00,,OVC050,0.00,VWS V14.01,2013-02-28 13:34:00,
2013-02-28 08:39:00,41.4,25.6,29.79,NW,311,7.0,9.0,53,0.00,,OVC050,0.00,VWS V14.01,2013-02-28 13:39:00,
2013-02-28 08:44:00,41.4,25.1,29.80,WNW,300,2.0,10.0,52,0.00,,OVC050,0.00,VWS V14.01,2013-02-28 13:44:00,
2013-02-28 08:49:00,41.3,25.0,29.80,WNW,302,7.0,11.0,52,0.00,,OVC050,0.00,VWS V14.01,2013-02-28 13:49:00,
2013-02-28 08:54:00,41.1,24.8,29.81,NW,311,7.0,10.0,52,0.00,,OVC050,0.00,VWS V14.01,2013-02-28 13:54:00,
2013-02-28 08:59:00,40.8,24.5,29.81,NW,307,10.0,13.0,52,0.00,,OVC050,0.00,VWS V14.01,2013-02-28 13:59:00,
2013-02-28 09:04:00,40.9,25.5,29.82,NW,307,0.0,2.0,54,0.00,,BKN050,0.00,VWS V14.01,2013-02-28 14:04:00,
2013-02-28 09:09:00,41.8,25.5,29.82,North,355,6.0,9.0,52,0.00,,BKN050,0.00,VWS V14.01,2013-02-28 14:09:00,
2013-02-28 09:14:00,42.0,25.7,29.82,WNW,302,7.0,7.0,52,0.00,,BKN050,0.00,VWS V14.01,2013-02-28 14:14:00,
2013-02-28 09:19:00,41.9,24.1,29.82,NW,307,3.0,6.0,49,0.00,,BKN050,0.00,VWS V14.01,2013-02-28 14:19:00,
2013-02-28 09:24:00,41.3,23.6,29.82,NW,321,2.0,9.0,49,0.00,,BKN050,0.00,VWS V14.01,2013-02-28 14:24:00,
2013-02-28 09:29:00,41.3,24.1,29.81,NW,310,1.0,2.0,50,0.00,,BKN050,0.00,VWS V14.01,2013-02-28 14:29:00,
2013-02-28 09:34:00,41.3,23.1,29.81,WNW,302,8.0,9.0,48,0.00,,BKN050,0.00,VWS V14.01,2013-02-28 14:34:00,
2013-02-28 09:39:00,41.4,24.6,29.82,NW,325,1.0,1.0,51,0.00,,OVC050,0.00,VWS V14.01,2013-02-28 14:39:00,
2013-02-28 09:44:00,41.5,23.8,29.82,WNW,300,5.0,7.0,49,0.00,,OVC050,0.00,VWS V14.01,2013-02-28 14:44:00,
2013-02-28 09:49:00,41.1,23.4,29.82,WNW,302,11.0,12.0,49,0.00,,OVC050,0.00,VWS V14.01,2013-02-28 14:49:00,
2013-02-28 09:54:00,41.1,23.4,29.82,West,281,2.0,6.0,49,0.00,,OVC050,0.00,VWS V14.01,2013-02-28 14:54:00,
2013-02-28 09:59:00,41.3,24.5,29.82,NW,315,0.0,2.0,51,0.00,,OVC050,0.00,VWS V14.01,2013-02-28 14:59:00,
2013-02-28 10:04:00,41.7,24.0,29.82,WNW,298,5.0,6.0,49,0.00,,OVC050,0.00,VWS V14.01,2013-02-28 15:04:00,
2013-02-28 10:09:00,41.9,24.6,29.82,NW,305,2.0,3.0,50,0.00,,BKN060,0.00,VWS V14.01,2013-02-28 15:09:00,
2013-02-28 10:14:00,42.6,24.3,29.82,WNW,300,7.0,8.0,48,0.00,,BKN060,0.00,VWS V14.01,2013-02-28 15:14:00,
2013-02-28 10:19:00,43.0,24.2,29.82,NNW,340,9.0,9.0,47,0.00,,BKN060,0.00,VWS V14.01,2013-02-28 15:19:00,
2013-02-28 10:24:00,43.7,23.2,29.82,NW,316,5.0,8.0,44,0.00,,BKN060,0.00,VWS V14.01,2013-02-28 15:24:00,
2013-02-28 10:29:00,44.5,24.0,29.81,WNW,288,9.0,12.0,44,0.00,,BKN060,0.00,VWS V14.01,2013-02-28 15:29:00,
2013-02-28 10:34:00,45.2,25.1,29.81,NW,305,5.0,7.0,45,0.00,,BKN060,0.00,VWS V14.01,2013-02-28 15:34:00,
2013-02-28 10:39:00,44.9,24.3,29.82,NNW,342,11.0,12.0,44,0.00,,OVC060,0.00,VWS V14.01,2013-02-28 15:39:00,
2013-02-28 10:44:00,44.4,23.9,29.81,NNW,342,9.0,13.0,44,0.00,,OVC060,0.00,VWS V14.01,2013-02-28 15:44:00,
2013-02-28 10:49:00,44.4,24.4,29.81,WNW,295,0.0,16.0,45,0.00,,OVC060,0.00,VWS V14.01,2013-02-28 15:49:00,
2013-02-28 10:54:00,44.4,23.9,29.81,NNW,328,6.0,14.0,44,0.00,,OVC060,0.00,VWS V14.01,2013-02-28 15:54:00,
2013-02-28 10:59:00,45.2,25.1,29.81,NW,311,6.0,11.0,45,0.00,,OVC050,0.00,VWS V14.01,2013-02-28 15:59:00,
2013-02-28 11:05:00,44.8,23.7,29.81,West,276,4.0,16.0,43,0.00,,OVC050,0.00,VWS V14.01,2013-02-28 16:05:00,
2013-02-28 11:10:00,43.8,24.4,29.81,NW,316,1.0,12.0,46,0.00,,OVC050,0.00,VWS V14.01,2013-02-28 16:10:00,
2013-02-28 11:15:00,43.5,24.1,29.81,WNW,295,12.0,13.0,46,0.00,,OVC050,0.00,VWS V14.01,2013-02-28 16:15:00,
2013-02-28 11:20:00,43.1,24.3,29.82,NNW,338,5.0,10.0,47,0.00,,OVC065,0.00,VWS V14.01,2013-02-28 16:20:00,
2013-02-28 11:25:00,42.8,24.5,29.82,NNE,25,0.0,5.0,48,0.00,,OVC065,0.00,VWS V14.01,2013-02-28 16:25:00,
2013-02-28 11:30:00,43.2,24.4,29.82,WNW,297,5.0,10.0,47,0.00,,OVC065,0.00,VWS V14.01,2013-02-28 16:30:00,
2013-02-28 11:35:00,42.9,24.6,29.82,WNW,301,1.0,11.0,48,0.00,,OVC065,0.00,VWS V14.01,2013-02-28 16:35:00,
2013-02-28 11:40:00,43.2,24.4,29.82,WNW,297,8.0,9.0,47,0.00,,OVC065,0.00,VWS V14.01,2013-02-28 16:40:00,
2013-02-28 11:45:00,43.0,25.2,29.82,West,280,1.0,5.0,49,0.00,,OVC065,0.00,VWS V14.01,2013-02-28 16:45:00,
2013-02-28 11:50:00,43.1,24.8,29.82,SW,219,7.0,9.0,48,0.00,,OVC065,0.00,VWS V14.01,2013-02-28 16:50:00,
2013-02-28 11:55:00,42.9,24.6,29.82,WNW,296,5.0,7.0,48,0.00,,OVC065,0.00,VWS V14.01,2013-02-28 16:55:00,
2013-02-28 12:00:00,43.5,25.6,29.82,NW,311,2.0,8.0,49,0.00,,OVC065,0.00,VWS V14.01,2013-02-28 17:00:00,
2013-02-28 12:05:00,43.5,25.6,29.82,WNW,287,3.0,3.0,49,0.00,,OVC065,0.00,VWS V14.01,2013-02-28 17:05:00,
2013-02-28 12:10:00,43.8,25.9,29.82,NW,307,1.0,4.0,49,0.00,,OVC060,0.00,VWS V14.01,2013-02-28 17:10:00,
2013-02-28 12:15:00,43.9,25.0,29.82,NNW,345,7.0,16.0,47,0.00,,OVC060,0.00,VWS V14.01,2013-02-28 17:15:00,
2013-02-28 12:20:00,44.7,25.7,29.82,North,356,2.0,5.0,47,0.00,,OVC050,0.00,VWS V14.01,2013-02-28 17:20:00,
2013-02-28 12:25:00,45.2,26.2,29.82,NNW,329,0.0,7.0,47,0.00,,OVC050,0.00,VWS V14.01,2013-02-28 17:25:00,
2013-02-28 12:30:00,43.9,25.5,29.83,NW,307,4.0,8.0,48,0.00,,OVC050,0.00,VWS V14.01,2013-02-28 17:30:00,
2013-02-28 12:35:00,43.5,25.1,29.83,NW,305,9.0,9.0,48,0.00,,OVC050,0.00,VWS V14.01,2013-02-28 17:35:00,
2013-02-28 12:40:00,43.5,26.6,29.83,West,274,2.0,4.0,51,0.00,,OVC050,0.00,VWS V14.01,2013-02-28 17:40:00,
2013-02-28 12:45:00,43.8,25.9,29.83,West,274,2.0,7.0,49,0.00,,OVC050,0.00,VWS V14.01,2013-02-28 17:45:00,
2013-02-28 12:50:00,43.7,26.3,29.83,WNW,302,11.0,11.0,50,0.00,,OVC050,0.00,VWS V14.01,2013-02-28 17:50:00,
2013-02-28 12:55:00,43.6,26.2,29.83,SSW,198,1.0,8.0,50,0.00,,OVC050,0.00,VWS V14.01,2013-02-28 17:55:00,
2013-02-28 13:00:00,43.6,25.7,29.83,West,278,2.0,5.0,49,0.00,,OVC050,0.00,VWS V14.01,2013-02-28 18:00:00,
2013-02-28 13:05:00,43.3,25.4,29.82,NNW,327,4.0,6.0,49,0.00,,OVC050,0.00,VWS V14.01,2013-02-28 18:05:00,
2013-02-28 13:10:00,43.1,25.7,29.82,WNW,301,2.0,9.0,50,0.00,,OVC050,0.00,VWS V14.01,2013-02-28 18:10:00,
2013-02-28 13:15:00,42.9,25.6,29.82,WNW,293,5.0,8.0,50,0.00,,OVC050,0.00,VWS V14.01,2013-02-28 18:15:00,
2013-02-28 13:20:00,43.1,25.3,29.82,WNW,300,2.0,8.0,49,0.00,,OVC050,0.00,VWS V14.01,2013-02-28 18:20:00,
2013-02-28 13:25:00,42.9,25.1,29.82,NW,305,5.0,11.0,49,0.00,,OVC050,0.00,VWS V14.01,2013-02-28 18:25:00,
2013-02-28 13:30:00,43.1,26.2,29.82,WNW,295,8.0,8.0,51,0.00,,OVC050,0.00,VWS V14.01,2013-02-28 18:30:00,
2013-02-28 13:35:00,43.4,26.5,29.82,SSE,167,2.0,3.0,51,0.00,,OVC050,0.00,VWS V14.01,2013-02-28 18:35:00,
2013-02-28 13:40:00,44.1,25.7,29.82,NNW,330,6.0,7.0,48,0.00,,OVC048,0.00,VWS V14.01,2013-02-28 18:40:00,
2013-02-28 13:45:00,44.3,24.8,29.82,WNW,297,13.0,14.0,46,0.00,,OVC048,0.00,VWS V14.01,2013-02-28 18:45:00,
2013-02-28 13:50:00,43.9,24.5,29.82,NW,305,5.0,19.0,46,0.00,,OVC048,0.00,VWS V14.01,2013-02-28 18:50:00,
2013-02-28 13:55:00,43.6,24.2,29.82,WNW,290,14.0,22.0,46,0.00,,OVC048,0.00,VWS V14.01,2013-02-28 18:55:00,
2013-02-28 14:00:00,43.0,25.2,29.82,WNW,293,1.0,5.0,49,0.00,,OVC048,0.00,VWS V14.01,2013-02-28 19:00:00,
2013-02-28 14:05:00,43.2,25.4,29.82,NW,307,15.0,16.0,49,0.00,,OVC048,0.00,VWS V14.01,2013-02-28 19:05:00,
2013-02-28 14:10:00,42.9,25.1,29.82,WNW,301,2.0,10.0,49,0.00,,OVC050,0.00,VWS V14.01,2013-02-28 19:10:00,
2013-02-28 14:15:00,42.7,23.9,29.82,NW,304,20.0,20.0,47,0.00,,OVC050,0.00,VWS V14.01,2013-02-28 19:15:00,
2013-02-28 14:20:00,42.5,24.2,29.82,NW,323,4.0,13.0,48,0.00,,OVC060,0.00,VWS V14.01,2013-02-28 19:20:00,
2013-02-28 14:25:00,43.1,24.8,29.82,NW,322,13.0,13.0,48,0.00,,OVC060,0.00,VWS V14.01,2013-02-28 19:25:00,
2013-02-28 14:30:00,42.6,23.8,29.82,WNW,297,18.0,18.0,47,0.00,,OVC060,0.00,VWS V14.01,2013-02-28 19:30:00,
2013-02-28 17:01:00,41.4,26.0,29.88,WNW,292,3.0,5.0,54,0.00,,OVC060,0.00,VWS V14.01,2013-02-28 22:01:00,
2013-02-28 17:06:00,41.2,25.8,29.88,WNW,292,7.0,11.0,54,0.00,,OVC048,0.00,VWS V14.01,2013-02-28 22:06:00,
2013-02-28 17:11:00,40.9,26.0,29.88,NW,307,8.0,8.0,55,0.00,,OVC048,0.00,VWS V14.01,2013-02-28 22:11:00,
2013-02-28 17:16:00,40.7,26.2,29.89,North,5,6.0,9.0,56,0.00,,OVC048,0.00,VWS V14.01,2013-02-28 22:16:00,
2013-02-28 17:21:00,40.6,26.1,29.89,NW,309,9.0,10.0,56,0.00,,OVC044,0.00,VWS V14.01,2013-02-28 22:21:00,
2013-02-28 17:26:00,40.4,26.0,29.89,WNW,293,7.0,10.0,56,0.00,,OVC044,0.00,VWS V14.01,2013-02-28 22:26:00,
2013-02-28 17:31:00,40.3,26.3,29.89,NW,305,10.0,10.0,57,0.00,,OVC044,0.00,VWS V14.01,2013-02-28 22:31:00,
2013-02-28 17:36:00,40.2,26.2,29.90,WNW,302,8.0,11.0,57,0.00,,OVC044,0.00,VWS V14.01,2013-02-28 22:36:00,
2013-02-28 17:41:00,40.1,26.1,29.90,WNW,301,5.0,11.0,57,0.00,,OVC044,0.00,VWS V14.01,2013-02-28 22:41:00,
2013-02-28 17:46:00,39.9,26.3,29.90,NW,323,13.0,14.0,58,0.00,,OVC044,0.00,VWS V14.01,2013-02-28 22:46:00,
2013-02-28 17:51:00,39.7,26.6,29.90,NW,305,4.0,8.0,59,0.00,,OVC044,0.00,VWS V14.01,2013-02-28 22:51:00,
2013-02-28 17:56:00,39.7,27.0,29.90,West,273,2.0,3.0,60,0.00,,OVC044,0.00,VWS V14.01,2013-02-28 22:56:00,
2013-02-28 18:01:00,39.7,27.0,29.90,WNW,294,0.0,2.0,60,0.00,,OVC042,0.00,VWS V14.01,2013-02-28 23:01:00,
2013-02-28 18:06:00,39.6,26.9,29.91,North,4,2.0,5.0,60,0.00,,OVC042,0.00,VWS V14.01,2013-02-28 23:06:00,
2013-02-28 18:11:00,39.6,26.9,29.91,West,273,2.0,3.0,60,0.00,,OVC042,0.00,VWS V14.01,2013-02-28 23:11:00,
2013-02-28 18:16:00,39.4,26.7,29.91,NW,305,3.0,5.0,60,0.00,,OVC042,0.00,VWS V14.01,2013-02-28 23:16:00,
2013-02-28 18:21:00,39.3,26.6,29.91,NE,39,3.0,3.0,60,0.00,,OVC046,0.00,VWS V14.01,2013-02-28 23:21:00,
2013-02-28 18:26:00,39.2,26.9,29.91,SW,218,0.0,0.0,61,0.00,,OVC046,0.00,VWS V14.01,2013-02-28 23:26:00,
2013-02-28 18:32:00,39.1,26.0,29.91,NNW,340,1.0,6.0,59,0.00,,OVC046,0.00,VWS V14.01,2013-02-28 23:32:00,
2013-02-28 18:37:00,39.0,25.9,29.90,West,281,0.0,1.0,59,0.00,,OVC046,0.00,VWS V14.01,2013-02-28 23:37:00,
2013-02-28 18:41:00,38.9,26.2,29.91,WNW,282,0.0,0.0,60,0.00,,OVC048,0.00,VWS V14.01,2013-02-28 23:41:00,
2013-02-28 18:47:00,38.7,26.0,29.91,NNE,32,1.0,2.0,60,0.00,,OVC048,0.00,VWS V14.01,2013-02-28 23:47:00,
2013-02-28 18:51:00,38.7,26.4,29.91,WSW,253,0.0,0.0,61,0.00,,OVC048,0.00,VWS V14.01,2013-02-28 23:51:00,
2013-02-28 18:56:00,38.5,25.8,29.91,WNW,290,2.0,3.0,60,0.00,,OVC048,0.00,VWS V14.01,2013-02-28 23:56:00,
2013-02-28 19:01:00,38.4,25.7,29.91,WNW,289,0.0,0.0,60,0.00,,OVC046,0.00,VWS V14.01,2013-03-01 00:01:00,
2013-02-28 19:06:00,38.2,25.5,29.91,NW,305,0.0,2.0,60,0.00,,OVC046,0.00,VWS V14.01,2013-03-01 00:06:00,
2013-02-28 19:11:00,38.0,25.8,29.91,North,353,0.0,1.0,61,0.00,,OVC046,0.00,VWS V14.01,2013-03-01 00:11:00,
2013-02-28 19:16:00,37.8,25.6,29.91,WSW,250,0.0,0.0,61,0.00,,OVC046,0.00,VWS V14.01,2013-03-01 00:16:00,
2013-02-28 19:22:00,37.5,25.3,29.92,NNW,330,0.0,0.0,61,0.00,,OVC046,0.00,VWS V14.01,2013-03-01 00:22:00,
2013-02-28 19:26:00,37.4,25.2,29.91,NNW,330,0.0,1.0,61,0.00,,OVC046,0.00,VWS V14.01,2013-03-01 00:26:00,
2013-02-28 19:32:00,37.2,25.0,29.91,NW,308,0.0,0.0,61,0.00,,OVC046,0.00,VWS V14.01,2013-03-01 00:32:00,
2013-02-28 19:37:00,37.1,25.3,29.91,NW,311,0.0,2.0,62,0.00,,OVC046,0.00,VWS V14.01,2013-03-01 00:37:00,
2013-02-28 19:42:00,37.0,25.2,29.91,NW,307,3.0,4.0,62,0.00,,OVC046,0.00,VWS V14.01,2013-03-01 00:42:00,
2013-02-28 19:47:00,36.9,25.1,29.91,SW,229,0.0,1.0,62,0.00,,OVC046,0.00,VWS V14.01,2013-03-01 00:47:00,
2013-02-28 19:52:00,36.9,25.1,29.91,WNW,282,0.0,0.0,62,0.00,,OVC046,0.00,VWS V14.01,2013-03-01 00:52:00,
2013-02-28 19:57:00,36.7,24.9,29.91,NW,305,1.0,1.0,62,0.00,,OVC046,0.00,VWS V14.01,2013-03-01 00:57:00,
2013-02-28 20:02:00,36.8,25.0,29.91,WNW,291,0.0,1.0,62,0.00,,OVC048,0.00,VWS V14.01,2013-03-01 01:02:00,
2013-02-28 20:07:00,36.9,25.1,29.91,NW,307,0.0,4.0,62,0.00,,OVC048,0.00,VWS V14.01,2013-03-01 01:07:00,
2013-02-28 20:12:00,36.9,25.1,29.91,NW,311,3.0,3.0,62,0.00,,OVC048,0.00,VWS V14.01,2013-03-01 01:12:00,
2013-02-28 20:17:00,37.0,25.2,29.91,NW,312,1.0,2.0,62,0.00,,OVC048,0.00,VWS V14.01,2013-03-01 01:17:00,
2013-02-28 20:22:00,37.0,25.2,29.90,NNW,327,1.0,1.0,62,0.00,,OVC046,0.00,VWS V14.01,2013-03-01 01:22:00,
2013-02-28 20:27:00,36.9,25.5,29.90,West,281,0.0,3.0,63,0.00,,OVC046,0.00,VWS V14.01,2013-03-01 01:27:00,
2013-02-28 20:32:00,36.7,25.3,29.91,South,187,0.0,0.0,63,0.00,,OVC046,0.00,VWS V14.01,2013-03-01 01:32:00,
2013-02-28 20:37:00,36.4,25.4,29.91,WNW,290,0.0,0.0,64,0.00,,OVC046,0.00,VWS V14.01,2013-03-01 01:37:00,
2013-02-28 20:42:00,36.2,25.6,29.91,WNW,293,0.0,0.0,65,0.00,,OVC050,0.00,VWS V14.01,2013-03-01 01:42:00,
2013-02-28 20:47:00,35.8,25.2,29.91,WNW,293,0.0,0.0,65,0.00,,OVC050,0.00,VWS V14.01,2013-03-01 01:47:00,
2013-02-28 20:52:00,35.5,24.9,29.91,WNW,293,0.0,0.0,65,0.00,,OVC050,0.00,VWS V14.01,2013-03-01 01:52:00,
2013-02-28 20:57:00,35.3,25.1,29.91,NW,314,1.0,1.0,66,0.00,,OVC050,0.00,VWS V14.01,2013-03-01 01:57:00,
2013-02-28 21:02:00,35.2,25.4,29.91,NW,318,0.0,0.0,67,0.00,,OVC050,0.00,VWS V14.01,2013-03-01 02:02:00,
2013-02-28 21:07:00,34.8,25.3,29.91,NW,318,0.0,0.0,68,0.00,,OVC050,0.00,VWS V14.01,2013-03-01 02:07:00,
2013-02-28 21:12:00,34.3,25.2,29.91,NNW,330,0.0,0.0,69,0.00,,OVC050,0.00,VWS V14.01,2013-03-01 02:12:00,
2013-02-28 21:17:00,34.0,25.3,29.92,NNW,330,0.0,0.0,70,0.00,,OVC050,0.00,VWS V14.01,2013-03-01 02:17:00,
2013-02-28 21:22:00,33.7,25.3,29.92,NNW,330,0.0,0.0,71,0.00,,BKN044,0.00,VWS V14.01,2013-03-01 02:22:00,
2013-02-28 21:27:00,33.5,25.1,29.92,NNW,330,0.0,0.0,71,0.00,,BKN044,0.00,VWS V14.01,2013-03-01 02:27:00,
2013-02-28 21:32:00,33.4,25.0,29.92,NNW,330,0.0,0.0,71,0.00,,BKN044,0.00,VWS V14.01,2013-03-01 02:32:00,
2013-02-28 21:37:00,33.1,25.4,29.92,NNW,330,0.0,0.0,73,0.00,,BKN044,0.00,VWS V14.01,2013-03-01 02:37:00,
2013-02-28 21:42:00,32.8,25.1,29.92,NNW,330,0.0,0.0,73,0.00,,BKN050,0.00,VWS V14.01,2013-03-01 02:42:00,
2013-02-28 21:47:00,32.4,25.0,29.92,NNW,330,0.0,0.0,74,0.00,,BKN050,0.00,VWS V14.01,2013-03-01 02:47:00,
2013-02-28 21:52:00,32.1,24.4,29.92,NNW,330,0.0,0.0,73,0.00,,BKN050,0.00,VWS V14.01,2013-03-01 02:52:00,
2013-02-28 21:57:00,32.3,25.0,29.91,NNW,330,0.0,0.0,74,0.00,,BKN050,0.00,VWS V14.01,2013-03-01 02:57:00,
2013-02-28 22:02:00,32.3,24.6,29.91,NNW,330,0.0,0.0,73,0.00,,BKN050,0.00,VWS V14.01,2013-03-01 03:02:00,
2013-02-28 22:07:00,32.3,25.0,29.92,NNW,330,0.0,0.0,74,0.00,,OVC050,0.00,VWS V14.01,2013-03-01 03:07:00,
2013-02-28 22:12:00,32.3,25.0,29.92,NNW,330,0.0,0.0,74,0.00,,OVC050,0.00,VWS V14.01,2013-03-01 03:12:00,
2013-02-28 22:17:00,32.8,25.4,29.92,NW,311,0.0,1.0,74,0.00,,OVC050,0.00,VWS V14.01,2013-03-01 03:17:00,
2013-02-28 22:22:00,32.7,25.7,29.92,NW,311,0.0,0.0,75,0.00,,SCT050,0.00,VWS V14.01,2013-03-01 03:22:00,
2013-02-28 22:27:00,32.2,25.8,29.92,NW,311,0.0,0.0,77,0.00,,SCT050,0.00,VWS V14.01,2013-03-01 03:27:00,
2013-02-28 22:32:00,31.8,25.4,29.92,NW,311,0.0,0.0,77,0.00,,SCT050,0.00,VWS V14.01,2013-03-01 03:32:00,
2013-02-28 22:37:00,31.4,25.4,29.92,NW,311,0.0,0.0,78,0.00,,SCT050,0.00,VWS V14.01,2013-03-01 03:37:00,
2013-02-28 22:42:00,31.4,25.6,29.92,NW,311,0.0,0.0,79,0.00,,SCT050,0.00,VWS V14.01,2013-03-01 03:42:00,
2013-02-28 22:47:00,31.2,25.5,29.92,NW,311,0.0,0.0,79,0.00,,SCT050,0.00,VWS V14.01,2013-03-01 03:47:00,
2013-02-28 22:52:00,31.0,25.3,29.92,NW,310,0.0,0.0,79,0.00,,SCT050,0.00,VWS V14.01,2013-03-01 03:52:00,
2013-02-28 22:57:00,31.1,25.4,29.92,NW,311,0.0,0.0,79,0.00,,SCT050,0.00,VWS V14.01,2013-03-01 03:57:00,
2013-02-28 23:02:00,31.4,25.6,29.92,NW,310,0.0,0.0,79,0.00,,BKN050,0.00,VWS V14.01,2013-03-01 04:02:00,
2013-02-28 23:07:00,31.7,26.2,29.93,NW,311,0.0,0.0,80,0.00,,BKN050,0.00,VWS V14.01,2013-03-01 04:07:00,
2013-02-28 23:12:00,31.6,25.9,29.92,NW,311,0.0,0.0,79,0.00,,BKN050,0.00,VWS V14.01,2013-03-01 04:12:00,
2013-02-28 23:17:00,31.4,26.0,29.92,NW,311,0.0,0.0,80,0.00,,BKN050,0.00,VWS V14.01,2013-03-01 04:17:00,
2013-02-28 23:22:00,31.2,25.8,29.92,NW,310,0.0,0.0,80,0.00,,OVC049,0.00,VWS V14.01,2013-03-01 04:22:00,
2013-02-28 23:27:00,31.4,25.6,29.92,NW,311,0.0,0.0,79,0.00,,OVC049,0.00,VWS V14.01,2013-03-01 04:27:00,
2013-02-28 23:32:00,32.0,25.6,29.92,WNW,295,0.0,0.0,77,0.00,,OVC049,0.00,VWS V14.01,2013-03-01 04:32:00,
2013-02-28 23:37:00,32.4,26.0,29.92,WNW,283,0.0,0.0,77,0.00,,OVC049,0.00,VWS V14.01,2013-03-01 04:37:00,
2013-02-28 23:42:00,32.8,26.1,29.92,WNW,283,0.0,0.0,76,0.00,,OVC042,0.00,VWS V14.01,2013-03-01 04:42:00,
2013-02-28 23:47:00,33.1,26.0,29.92,WNW,283,0.0,0.0,75,0.00,,OVC042,0.00,VWS V14.01,2013-03-01 04:47:00,
2013-02-28 23:52:00,33.3,27.8,29.92,WNW,283,0.0,0.0,80,0.00,,OVC042,0.00,VWS V14.01,2013-03-01 04:52:00,
2013-02-28 23:57:00,33.4,27.3,29.92,WNW,287,0.0,0.0,78,0.00,,OVC042,0.00,VWS V14.01,2013-03-01 04:57:00,